Vorticity
3 6 6 1 3 5 12 16 12 12 11 8 6 7 8 10 8 8 8 10 12 8 5 5 7 7 4 3 5 7 6 4 4 5 7 6 3 0 0 0 -5 3 4
6 6 4 4 1 10 14 14 10 10 11 9 8 10 6 7 8 7 6 7 8 6 6 6 8 5 5 5 4 4 4 6 6 6 6 6 7 3 1 2 4 6 1
8 8 1 2 2 11 17 13 9 8 8 8 8 8 8 6 5 5 7 7 7 7 7 10 7 5 4 4 4 4 4 5 5 5 5 5 5 4 5 1 2 3 5
6 14 2 3 2 10 13 14 8 8 9 8 8 8 8 9 8 8 8 9 10 10 11 8 6 6 5 4 4 4 4 4 4 3 3 3 3 3 2 2 2 3 2
5 9 5 3 4 10 12 12 10 9 9 9 9 9 8 10 9 9 8 7 7 6 6 6 6 5 4 4 5 5 4 5 4 4 3 3 3 4 5 4 3 2 0
8 4 6 3 5 10 13 8 10 8 8 6 6 7 8 7 7 7 6 6 6 6 5 5 6 6 5 6 5 5 5 5 4 4 4 5 4 4 4 3 2 3 4
7 4 6 4 8 12 12 7 7 7 8 7 6 6 6 6 7 6 6 5 6 6 7 7 6 6 6 6 6 5 5 5 5 5 4 4 5 6 7 8 7 6 6
5 4 4 3 6 10 10 13 6 8 8 8 8 8 7 7 8 7 7 6 6 6 6 6 6 6 6 6 5 5 5 4 4 5 6 6 6 7 6 5 5 6 5
5 4 3 4 5 6 6 9 10 6 6 8 8 7 9 5 5 6 7 8 7 6 6 6 6 7 7 6 7 6 6 11 12 10 10 10 10 7 5 5 4 5 4
4 5 4 2 3 5 5 5 4 5 5 3 5 5 7 7 6 5 6 6 6 6 7 7 6 5 4 7 6 14 19 12 8 11 10 10 8 9 6 5 8 4 3
4 4 5 3 3 6 5 5 8 7 5 4 4 4 4 6 6 8 9 9 8 7 6 3 8 12 14 14 9 6 12 2 3 -2 -3 -1 2 4 2 7 4 0 6
6 4 2 2 3 4 6 6 5 4 7 8 5 5 3 6 7 7 5 6 3 4 7 12 15 15 14 20 13 -2 9 2 4 -7 3 -2 1 10 7 5 15 22 17
4 -1 3 7 6 5 5 6 5 5 2 3 4 5 7 9 6 3 6 9 11 12 18 14 15 13 15 -4 16 6 5 1 -2 0 1 5 4 12 17 47 38 41 46
12 12 12 7 8 6 7 8 7 7 7 6 5 1 2 6 -0 8 16 13 12 22 13 11 6 12 -3 9 1 3 0 4 6 4 2 -2 17 47 30 30 16 14 13
5 8 14 11 5 22 20 7 5 6 6 7 7 6 5 2 9 8 11 6 20 3 16 9 14 0 2 6 6 2 10 6 8 7 3 17 39 28 25 17 14 19 18
12 14 10 10 8 4 0 1 30 26 14 10 10 5 4 5 1 18 9 7 6 6 25 13 14 -2 1 6 -4 3 5 12 3 16 7 18 36 17 7 17 23 20 23
13 9 8 11 5 3 15 12 17 3 6 19 12 11 17 8 10 17 6 0 7 8 34 -1 23 0 -3 7 -8 -1 -3 3 13 10 12 31 17 12 16 16 19 17 16
20 20 7 4 8 10 5 2 5 1 10 10 13 11 14 20 8 -5 24 7 10 24 15 10 10 11 -3 7 3 4 -0 -1 11 7 27 24 12 23 19 18 19 22 25
13 14 11 7 4 5 7 8 8 9 10 11 20 15 7 7 2 5 17 6 13 14 7 5 8 8 1 2 2 -0 1 4 9 14 18 14 10 21 19 21 22 20 30
8 9 8 8 9 6 3 3 6 19 12 10 5 17 12 9 14 31 17 9 16 13 6 7 9 9 -2 0 3 0 4 12 17 15 11 22 12 29 18 26 21 27 20
48 51 25 20 19 17 13 4 11 -5 3 12 1 3 3 22 22 22 17 12 17 10 6 9 11 10 4 4 7 0 12 20 13 13 8 18 17 31 17 20 13 18 21
20 18 20 34 19 5 18 26 16 24 10 1 5 9 20 27 15 13 11 22 20 10 10 5 9 4 11 5 6 6 20 12 10 7 13 24 3 24 25 9 24 18 16
29 5 21 7 14 26 -14 23 -3 5 2 9 7 26 24 8 16 16 28 20 6 5 3 1 13 13 5 6 5 17 18 12 10 10 16 14 8 8 15 32 20 9 10
32 11 11 30 7 4 -10 16 32 4 16 15 28 20 6 16 11 26 14 4 4 0 7 7 9 7 5 6 15 16 14 11 10 13 9 2 19 4 4 -2 4 26 46
39 12 15 3 11 20 11 10 27 1 1 20 11 6 9 11 26 11 8 3 6 7 4 9 8 6 6 12 18 15 7 8 7 14 9 9 2 8 10 5 7 -1 -2
62 31 28 6 -1 8 51 12 8 11 27 23 11 11 6 12 22 13 8 4 7 6 7 7 8 9 14 16 12 13 8 5 12 10 7 5 4 3 4 4 5 2 -0
Height
5835 5835 5834 5833 5831 5829 5827 5825 5824 5823 5822 5823 5824 5823 5822 5821 5821 5823 5824 5825 5825 5825 5825 5824 5824 5825 5825 5826 5827 5828 5828 5827 5827 5828 5829 5829 5828 5827 5827 5827 5826 5826 5826
5829 5828 5826 5825 5823 5822 5819 5817 5816 5816 5816 5816 5817 5816 5815 5814 5815 5817 5819 5820 5820 5819 5818 5817 5817 5818 5820 5820 5820 5821 5820 5821 5821 5821 5821 5821 5822 5822 5822 5821 5821 5820 5820
5823 5821 5819 5819 5816 5813 5812 5810 5809 5809 5810 5810 5809 5809 5809 5808 5810 5811 5812 5812 5812 5811 5811 5811 5812 5812 5812 5813 5813 5813 5813 5813 5814 5814 5814 5813 5814 5814 5814 5813 5814 5813 5813
5815 5813 5812 5812 5808 5804 5804 5805 5803 5804 5803 5802 5803 5802 5801 5802 5802 5802 5802 5802 5803 5804 5805 5806 5806 5805 5805 5805 5805 5805 5805 5805 5805 5805 5806 5805 5806 5806 5805 5804 5804 5804 5805
5806 5806 5805 5806 5803 5799 5797 5797 5797 5798 5796 5796 5795 5794 5793 5795 5793 5793 5793 5794 5795 5797 5798 5798 5797 5796 5796 5797 5797 5797 5797 5797 5797 5797 5797 5796 5796 5796 5795 5795 5794 5794 5794
5797 5797 5797 5797 5795 5793 5791 5790 5789 5789 5789 5789 5788 5787 5787 5786 5786 5785 5786 5787 5788 5788 5787 5787 5787 5787 5787 5787 5786 5786 5786 5785 5785 5785 5785 5784 5784 5783 5782 5782 5782 5782 5782
5790 5790 5789 5789 5788 5786 5784 5783 5782 5780 5780 5781 5780 5780 5780 5779 5779 5779 5778 5779 5779 5779 5778 5778 5777 5776 5776 5776 5774 5774 5773 5773 5773 5772 5772 5771 5771 5771 5771 5770 5769 5769 5769
5782 5781 5781 5781 5780 5779 5778 5776 5776 5775 5774 5773 5772 5772 5772 5772 5772 5770 5770 5769 5769 5768 5768 5768 5768 5766 5764 5764 5763 5762 5760 5760 5760 5760 5759 5758 5757 5757 5756 5755 5755 5755 5754
5773 5772 5771 5771 5771 5770 5769 5768 5767 5766 5765 5765 5764 5764 5763 5763 5762 5762 5762 5761 5760 5759 5758 5757 5756 5755 5753 5753 5751 5750 5749 5749 5747 5746 5745 5745 5744 5742 5741 5739 5738 5737 5736
5761 5762 5761 5760 5759 5759 5758 5758 5756 5755 5755 5754 5753 5753 5753 5753 5752 5752 5752 5750 5750 5749 5748 5747 5746 5744 5742 5742 5740 5738 5735 5735 5735 5733 5732 5730 5727 5725 5724 5721 5719 5717 5716
5748 5748 5749 5748 5748 5747 5746 5746 5746 5745 5744 5742 5741 5741 5741 5742 5741 5741 5740 5740 5739 5738 5737 5736 5734 5732 5730 5730 5728 5728 5725 5725 5722 5718 5716 5713 5710 5707 5705 5701 5698 5695 5693
5736 5735 5734 5733 5732 5734 5735 5734 5733 5731 5731 5731 5731 5731 5729 5728 5728 5728 5727 5726 5726 5725 5723 5722 5719 5717 5717 5716 5715 5714 5712 5710 5705 5700 5697 5693 5689 5685 5682 5675 5669 5664 5661
5724 5723 5722 5721 5721 5719 5719 5719 5720 5720 5719 5718 5718 5717 5717 5716 5715 5713 5712 5714 5714 5712 5709 5706 5706 5705 5704 5704 5703 5702 5699 5696 5690 5685 5680 5674 5668 5661 5652 5641 5633 5627 5625
5711 5710 5708 5708 5706 5705 5704 5704 5704 5704 5704 5704 5705 5704 5704 5702 5701 5700 5698 5698 5697 5697 5694 5691 5690 5691 5692 5691 5690 5687 5685 5681 5675 5669 5662 5653 5643 5631 5620 5614 5611 5608 5607
5697 5695 5693 5691 5691 5690 5689 5688 5688 5689 5689 5689 5690 5690 5690 5688 5688 5686 5684 5683 5683 5683 5683 5680 5679 5679 5680 5679 5678 5675 5671 5667 5661 5652 5642 5630 5616 5607 5602 5599 5594 5590 5589
5683 5680 5679 5677 5676 5676 5675 5675 5675 5674 5675 5675 5675 5674 5674 5673 5673 5672 5671 5670 5669 5669 5670 5668 5667 5669 5668 5667 5665 5661 5656 5651 5644 5632 5622 5609 5598 5590 5585 5582 5579 5575 5573
5670 5666 5664 5662 5662 5662 5661 5661 5661 5660 5660 5660 5659 5659 5659 5658 5658 5658 5658 5658 5657 5657 5656 5655 5654 5657 5657 5656 5652 5648 5641 5634 5626 5616 5602 5592 5585 5579 5570 5567 5565 5562 5560
5650 5649 5646 5645 5644 5643 5645 5646 5647 5646 5646 5646 5646 5646 5646 5646 5644 5644 5643 5645 5645 5644 5644 5643 5643 5645 5647 5643 5641 5634 5627 5621 5613 5601 5589 5580 5573 5569 5560 5556 5553 5550 5549
5629 5629 5627 5625 5625 5625 5627 5629 5632 5633 5633 5633 5633 5633 5633 5632 5631 5630 5630 5631 5632 5632 5632 5632 5633 5634 5635 5630 5626 5621 5614 5608 5599 5589 5579 5572 5564 5559 5553 5547 5543 5541 5541
5604 5605 5605 5605 5605 5607 5610 5614 5615 5616 5618 5619 5618 5617 5617 5617 5617 5617 5617 5617 5619 5619 5620 5621 5621 5622 5622 5618 5612 5607 5602 5595 5587 5579 5572 5566 5557 5553 5546 5539 5535 5535 5536
5578 5578 5580 5581 5583 5587 5593 5596 5599 5600 5601 5603 5603 5603 5603 5602 5602 5604 5603 5604 5605 5606 5608 5609 5611 5610 5610 5606 5600 5595 5590 5584 5578 5572 5566 5562 5552 5548 5542 5536 5532 5532 5532
5559 5557 5558 5560 5563 5569 5575 5579 5583 5585 5585 5588 5589 5589 5588 5588 5588 5590 5590 5592 5594 5595 5597 5599 5599 5599 5597 5594 5589 5584 5579 5575 5570 5567 5561 5556 5552 5545 5539 5534 5531 5529 5529
5543 5541 5543 5545 5548 5552 5556 5562 5566 5565 5571 5572 5574 5574 5575 5575 5576 5578 5579 5582 5583 5585 5586 5588 5588 5587 5585 5581 5578 5574 5569 5565 5562 5559 5556 5551 5548 5544 5538 5533 5529 5527 5526
5529 5528 5529 5532 5534 5538 5543 5546 5549 5554 5556 5557 5560 5562 5563 5564 5566 5569 5570 5572 5573 5574 5576 5576 5576 5575 5573 5570 5567 5564 5561 5557 5555 5552 5549 5547 5543 5541 5537 5533 5529 5526 5523
5514 5513 5517 5519 5522 5525 5529 5533 5536 5541 5543 5546 5548 5551 5553 5554 5557 5559 5560 5561 5563 5564 5565 5565 5564 5563 5561 5559 5556 5555 5552 5549 5547 5545 5543 5540 5538 5536 5534 5530 5529 5525 5523
5500 5499 5502 5506 5511 5516 5516 5520 5526 5527 5532 5535 5538 5540 5543 5546 5548 5549 5550 5551 5553 5554 5555 5554 5553 5552 5550 5548 5547 5545 5543 5542 5540 5538 5536 5535 5532 5531 5529 5527 5525 5523 5521